Weather History for Stuart, FL

Change the Weather History Date:

Tuesday, November 6, 2012

  Actual Average Record
Temperature  
Mean Temperature 73 °F -  
Max Temperature 80 °F 81 °F 91 °F (1960)
Min Temperature 64 °F 61 °F 46 °F (1969)
Cooling Degree Days 8    
Growing Degree Days 23 (Base 50)    
Moisture  
Dew Point 63 °F    
Average Humidity 79    
Maximum Humidity 94    
Minimum Humidity 42    
Precipitation  
Precipitation 0.00 in - - ()
Sea Level Pressure  
Sea Level Pressure 29.90 in    
Wind  
Wind Speed 6 mph (WSW)    
Max Wind Speed 16 mph    
Max Gust Speed 20 mph    
Visibility 9 miles    
Events      
Averages and records for this station are not official NWS values.
T = Trace of Precipitation, MM = Missing Value Source: NWS Daily Summary

Daily Weather History Graph

Daily Weather History Graph

Search for Another Location

Airport:

Trip Planner

Search our weather history database for the weather conditions in past years. The results will help you decide how hot, cold, wet, or windy it might be!

Date:

Astronomy

Nov. 06, 2012 Rise Set
Actual Time 6:34 AM EST 5:33 PM EST
Civil Twilight 6:10 AM EST 5:58 PM EST
Nautical Twilight 5:42 AM EST 6:25 PM EST
Astronomical Twilight 5:15 AM EST 6:53 PM EST
Moon No Moon Rise 12:30 PM EST (11/6)
Length of Visible Light 11h 47m
Length of Day
10h 59m
Waning Gibbous, 53% of the Moon is Illuminated
Nov 6
Waning Gibbous
Nov 6
Last Quarter
Nov 13
New
Nov 20
First Quarter
Nov 28
Full

Hourly Weather History & Observations

Time (EST) Temp. Heat Index Dew Point Humidity Pressure Visibility Wind Dir Wind Speed Gust Speed Precip Events Conditions
12:15 AM 69.8 °F - 64.4 °F 83% 29.96 in 10.0 mi West 5.8 mph - N/A   Clear
12:35 AM 68.0 °F - 64.4 °F 88% 29.94 in 10.0 mi West 4.6 mph - N/A   Clear
12:55 AM 68.0 °F - 64.4 °F 88% 29.94 in 10.0 mi West 5.8 mph - N/A   Clear
1:15 AM 69.8 °F - 64.4 °F 83% 29.93 in 10.0 mi West 4.6 mph - N/A   Clear
1:35 AM 68.0 °F - 64.4 °F 88% 29.93 in 10.0 mi Calm Calm - N/A   Clear
1:55 AM 68.0 °F - 64.4 °F 88% 29.93 in 10.0 mi Calm Calm - N/A   Clear
2:15 AM 68.0 °F - 64.4 °F 88% 29.91 in 10.0 mi South 4.6 mph - N/A   Clear
2:35 AM 68.0 °F - 64.4 °F 88% 29.91 in 10.0 mi SW 3.5 mph - N/A   Clear
2:55 AM 66.2 °F - 64.4 °F 94% 29.91 in 10.0 mi SW 3.5 mph - N/A   Clear
3:15 AM 66.2 °F - 62.6 °F 88% 29.91 in 10.0 mi WSW 3.5 mph - N/A   Scattered Clouds
3:35 AM 66.2 °F - 62.6 °F 88% 29.91 in 10.0 mi Calm Calm - N/A   Clear
3:55 AM 66.2 °F - 64.4 °F 94% 29.91 in 10.0 mi WSW 3.5 mph - N/A   Scattered Clouds
4:15 AM 66.2 °F - 64.4 °F 94% 29.91 in 10.0 mi SW 3.5 mph - N/A   Overcast
4:35 AM 66.2 °F - 64.4 °F 94% 29.91 in 10.0 mi West 3.5 mph - N/A   Overcast
4:55 AM 66.2 °F - 64.4 °F 94% 29.91 in 10.0 mi Calm Calm - N/A   Mostly Cloudy
5:15 AM 66.2 °F - 64.4 °F 94% 29.91 in 7.0 mi Calm Calm - N/A   Scattered Clouds
6:47 AM 66.2 °F - 64.4 °F 94% 29.94 in 7.0 mi WSW 3.5 mph - N/A   Mostly Cloudy
7:47 AM 68.0 °F - 66.2 °F 94% 29.93 in 7.0 mi SSW 3.5 mph - N/A   Mostly Cloudy
8:47 AM 71.6 °F - 64.4 °F 78% 29.94 in 7.0 mi SSW 5.8 mph - N/A   Mostly Cloudy
9:47 AM 75.2 °F - 64.4 °F 69% 29.95 in 7.0 mi WSW 6.9 mph - N/A   Mostly Cloudy
10:47 AM 77.0 °F - 60.8 °F 57% 29.92 in 7.0 mi West 11.5 mph - N/A   Scattered Clouds
11:47 AM 80.6 °F 81.5 °F 60.8 °F 51% 29.90 in 7.0 mi West 15.0 mph - N/A   Scattered Clouds
12:47 PM 80.6 °F 80.5 °F 55.4 °F 42% 29.87 in 7.0 mi WSW 16.1 mph - N/A   Scattered Clouds
1:47 PM 78.8 °F - 57.2 °F 47% 29.85 in 7.0 mi West 10.4 mph - N/A   Scattered Clouds
2:47 PM 78.8 °F - 57.2 °F 47% 29.83 in 7.0 mi West 13.8 mph 19.6 mph N/A   Scattered Clouds
3:47 PM 77.0 °F - 60.8 °F 57% 29.83 in 7.0 mi West 9.2 mph - N/A   Mostly Cloudy
4:47 PM 75.2 °F - 62.6 °F 65% 29.84 in 7.0 mi WSW 11.5 mph 16.1 mph N/A   Mostly Cloudy
5:47 PM 73.4 °F - 59.0 °F 61% 29.84 in 7.0 mi WSW 11.5 mph 16.1 mph N/A   Mostly Cloudy
6:47 PM 73.4 °F - 60.8 °F 65% 29.85 in 7.0 mi WSW 11.5 mph - N/A   Scattered Clouds
7:15 PM 71.6 °F - 60.8 °F 69% 29.86 in 10.0 mi West 6.9 mph - N/A   Mostly Cloudy
7:35 PM 69.8 °F - 60.8 °F 73% 29.87 in 10.0 mi West 8.1 mph - N/A   Scattered Clouds
7:55 PM 69.8 °F - 60.8 °F 73% 29.87 in 10.0 mi West 8.1 mph - N/A   Clear
8:15 PM 69.8 °F - 62.6 °F 78% 29.87 in 10.0 mi West 8.1 mph - N/A   Clear
8:35 PM 69.8 °F - 62.6 °F 78% 29.88 in 10.0 mi West 8.1 mph - N/A   Clear
8:55 PM 69.8 °F - 62.6 °F 78% 29.88 in 10.0 mi West 6.9 mph - N/A   Clear
9:15 PM 69.8 °F - 62.6 °F 78% 29.88 in 10.0 mi WSW 8.1 mph - N/A   Clear
9:35 PM 68.0 °F - 62.6 °F 83% 29.89 in 10.0 mi West 8.1 mph - N/A   Clear
9:55 PM 68.0 °F - 62.6 °F 83% 29.89 in 10.0 mi West 8.1 mph - N/A   Clear
10:15 PM 68.0 °F - 62.6 °F 83% 29.89 in 10.0 mi West 6.9 mph - N/A   Clear
10:35 PM 68.0 °F - 62.6 °F 83% 29.89 in 10.0 mi West 6.9 mph - N/A   Scattered Clouds
10:55 PM 68.0 °F - 62.6 °F 83% 29.88 in 10.0 mi West 6.9 mph - N/A   Clear
11:15 PM 66.2 °F - 62.6 °F 88% 29.88 in 10.0 mi West 5.8 mph - N/A   Clear
11:35 PM 66.2 °F - 62.6 °F 88% 29.87 in 10.0 mi West 4.6 mph - N/A   Clear
11:55 PM 64.4 °F - 62.6 °F 94% 29.87 in 10.0 mi West 3.5 mph - N/A   Clear